This demonstration page uses our WeatherBlox Daily Observations layout. Learn more.

Left ArrowRight Arrow

Hourly Observations for October 1, 2015

Temp ( °F °C ) Dew Point ( °F °C ) Humidity (%) Winds ( mph kmh ) Pressure ( in mb ) Visibility ( mi km ) Precip ( " mm )
12:15 am 00:15 Cloudy 63 17.3 45 7.1 51 51 SE 6 9 30.15 1021 10 16 N/A
12:35 am 00:35 Cloudy 63 17.2 45 7.4 53 53 SE 7 11 30.15 1021 10 16 N/A
12:55 am 00:55 Cloudy 62 16.9 45 7.4 54 54 SE 6 9 30.12 1020 10 16 N/A
1:15 am 01:15 Cloudy 62 16.6 45 7.2 54 54 SE 7 11 30.12 1020 10 16 N/A
1:35 am 01:35 Cloudy 62 16.4 45 7 54 54 SE 8 13 30.12 1020 10 16 N/A
1:55 am 01:55 Cloudy 61 16 44 6.5 54 54 SE 10 17 30.12 1020 10 16 N/A
2:15 am 02:15 Cloudy 60 15.8 44 6.4 54 54 SE 10 17 30.12 1020 10 16 N/A
2:35 am 02:35 Partly Cloudy 59 15 42 5.4 53 53 SE 14 22 30.12 1020 10 16 N/A
2:55 am 02:55 Clear 58 14.3 42 5.6 56 56 SE 12 19 30.15 1021 10 16 N/A
3:15 am 03:15 Clear 57 13.9 42 5.7 58 58 SE 8 13 30.15 1021 10 16 N/A
3:35 am 03:35 Clear 56 13.5 43 6 61 61 SE 7 11 30.15 1021 10 16 N/A
3:55 am 03:55 Clear 55 12.8 43 6 64 64 SE 8 13 30.15 1021 10 16 N/A
4:15 am 04:15 Clear 55 12.9 43 6 63 63 SSE 6 9 30.15 1021 10 16 N/A
4:35 am 04:35 Clear 55 12.5 43 6.1 65 65 SE 7 11 30.15 1021 10 16 N/A
4:55 am 04:55 Clear 54 12.2 43 6 66 66 SE 6 9 30.15 1021 10 16 N/A
5:15 am 05:15 Clear 53 11.9 43 6.1 68 68 SE 6 9 30.18 1022 10 16 N/A
5:35 am 05:35 Clear 52 11 44 6.4 74 74 ESE 6 9 30.21 1023 10 16 N/A
5:55 am 05:55 Clear 51 10.6 44 6.5 76 76 ESE 5 7 30.21 1023 10 16 N/A
6:15 am 06:15 Clear 52 11 43 6.2 73 73 ESE 7 11 30.21 1023 10 16 N/A
6:35 am 06:35 Clear 51 10.6 43 6.2 74 74 ESE 7 11 30.21 1023 10 16 N/A
6:55 am 06:55 Clear 51 10.3 44 6.5 78 78 ESE 6 9 30.21 1023 10 16 N/A
7:15 am 07:15 Mostly Cloudy 53 11.5 44 6.4 71 71 SE 9 15 30.18 1022 10 16 N/A
7:55 am 07:55 Cloudy 53 11.7 44 6.4 70 70 SE 9 15 30.21 1023 10 16 N/A
8:15 am 08:15 Mostly Cloudy 53 11.8 44 6.5 70 70 SE 10 17 30.21 1023 10 16 N/A
8:35 am 08:35 Mostly Cloudy 54 12.1 44 6.8 70 70 SE 10 17 30.21 1023 10 16 N/A
8:55 am 08:55 Cloudy 55 12.8 45 7.1 69 69 SSE 8 13 30.21 1023 10 16 N/A
9:15 am 09:15 Cloudy 56 13.3 45 7.2 67 67 SE 9 15 30.21 1023 10 16 N/A
9:35 am 09:35 Cloudy 56 13.6 45 7.1 65 65 SE 7 11 30.21 1023 10 16 N/A
9:55 am 09:55 Cloudy 57 13.8 45 7.2 65 65 SE 9 15 30.21 1023 10 16 N/A
10:15 am 10:15 Cloudy 57 14 45 7.2 64 64 SE 13 20 30.24 1024 10 16 N/A
10:35 am 10:35 Cloudy 58 14.6 46 7.5 63 63 SE 12 19 30.24 1024 10 16 N/A
10:55 am 10:55 Cloudy 59 15.2 46 7.8 62 62 SE 12 19 30.24 1024 10 16 N/A
11:15 am 11:15 Cloudy 61 16.1 46 7.9 58 58 SE 13 20 30.18 1022 10 16 N/A
11:35 am 11:35 Cloudy 64 17.6 48 8.8 57 57 SE 12 19 30.21 1023 10 16 N/A
11:55 am 11:55 Mostly Cloudy 64 17.6 47 8.6 56 56 SE 12 19 30.21 1023 10 16 N/A
12:15 pm 12:15 Cloudy 64 17.5 47 8.1 54 54 SE 12 19 30.21 1023 10 16 N/A
12:35 pm 12:35 Cloudy 62 16.9 47 8.1 56 56 SSE 13 20 30.21 1023 10 16 N/A
12:55 pm 12:55 Cloudy 63 17.3 46 7.8 54 54 SE 12 19 30.21 1023 10 16 N/A
1:15 pm 13:15 Cloudy 63 17 46 7.8 55 55 SE 9 15 30.21 1023 10 16 N/A
1:35 pm 13:35 Cloudy 64 17.5 47 8.5 56 56 SE 12 19 30.18 1022 10 16 N/A
1:55 pm 13:55 Cloudy 63 17.3 46 7.9 54 54 SE 12 19 30.21 1023 10 16 N/A
2:15 pm 14:15 Cloudy 63 17.1 47 8.2 56 56 SSE 9 15 30.21 1023 10 16 N/A
2:35 pm 14:35 Cloudy 64 18 48 8.7 55 55 SE 10 17 30.18 1022 10 16 N/A
2:55 pm 14:55 Cloudy 65 18.6 48 8.9 53 53 SE 8 13 30.15 1021 10 16 N/A
3:15 pm 15:15 Cloudy 66 18.8 46 8 50 50 SE 13 20 30.12 1020 10 16 N/A
3:35 pm 15:35 Partly Cloudy 67 19.5 47 8.1 48 48 SE 16 26 30.12 1020 10 16 N/A
3:55 pm 15:55 Sunny 67 19.3 47 8.3 49 49 SE 13 20 30.12 1020 10 16 N/A
4:15 pm 16:15 Sunny 66 18.8 45 7.3 47 47 SSE 18 30 30.12 1020 10 16 N/A
4:35 pm 16:35 Sunny 67 19.6 46 8 47 47 SSE 15 24 30.12 1020 10 16 N/A
4:55 pm 16:55 Sunny 68 20 45 7 43 43 SE 14 22 30.12 1020 10 16 N/A
5:15 pm 17:15 Sunny 66 19 45 7.4 47 47 SSE 13 20 30.12 1020 10 16 N/A
5:35 pm 17:35 Sunny 65 18.6 46 7.6 49 49 SE 9 15 30.12 1020 10 16 N/A
5:55 pm 17:55 Sunny 65 18.2 45 7.4 50 50 SE 12 19 30.15 1021 10 16 N/A
6:15 pm 18:15 Sunny 64 17.8 47 8.2 54 54 ESE 10 17 30.15 1021 10 16 N/A
6:35 pm 18:35 Sunny 64 17.6 46 7.5 52 52 ESE 13 20 30.15 1021 10 16 N/A
6:55 pm 18:55 Sunny 63 17.3 43 6 48 48 ESE 8 13 30.15 1021 10 16 N/A
7:15 pm 19:15 Sunny 63 17.2 41 5.2 45 45 ESE 8 13 30.18 1022 10 16 N/A
7:35 pm 19:35 Partly Cloudy 63 17.2 40 4.6 43 43 ESE 6 9 30.18 1022 10 16 N/A
7:55 pm 19:55 Clear 63 17.1 41 4.8 44 44 ESE 8 13 30.18 1022 10 16 N/A
8:15 pm 20:15 Clear 62 16.7 41 5.1 46 46 ESE 7 11 30.18 1022 10 16 N/A
8:35 pm 20:35 Clear 62 16.4 43 6.1 51 51 E 7 11 30.18 1022 10 16 N/A
8:55 pm 20:55 Clear 61 16 44 6.8 55 55 ESE 8 13 30.18 1022 10 16 N/A
9:15 pm 21:15 Partly Cloudy 61 16.3 43 6 51 51 ESE 10 17 30.21 1023 10 16 N/A
9:35 pm 21:35 Partly Cloudy 61 16 43 6 52 52 ESE 10 17 30.21 1023 10 16 N/A
9:55 pm 21:55 Clear 60 15.8 42 5.7 51 51 ESE 9 15 30.21 1023 10 16 N/A
10:15 pm 22:15 Clear 60 15.6 42 5.6 52 52 SE 9 15 30.21 1023 10 16 N/A
10:35 pm 22:35 Partly Cloudy 59 15.2 42 5.7 53 53 ESE 6 9 30.24 1024 10 16 N/A
10:55 pm 22:55 Partly Cloudy 58 14.3 45 7 62 62 E 6 9 30.24 1024 10 16 N/A
11:15 pm 23:15 Mostly Cloudy 58 14.5 43 6.3 58 58 ESE 12 19 30.27 1025 10 16 N/A
11:35 pm 23:35 Partly Cloudy 58 14.5 43 6 57 57 ESE 12 19 30.24 1024 10 16 N/A
11:55 pm 23:55 Partly Cloudy 58 14.3 43 6 58 58 ESE 12 19 30.27 1025 10 16 N/A

Powered by AerisWeather